"datetime","# probes","# resolvers","can_ipv6","can_ipv6_prbs","can_tcp","can_tcp_prbs","can_tcp6","can_tcp6_prbs","does_ecs","does_ecs_prbs","does_flagday","does_flagday_prbs","does_rov4","does_rov4_prbs","does_rov6","does_rov6_prbs","does_qnamemin","doesnt_qnamemin","does_qnamemin_prbs","doesnt_qnamemin_prbs","does_nxdomain","doesnt_nxdomain","does_nxdomain_prbs","doesnt_nxdomain_prbs","has_ta_19036","hasnt_ta_19036","has_ta_19036_prbs","hasnt_ta_19036_prbs","has_ta_20326","hasnt_ta_20326","has_ta_20326_prbs","hasnt_ta_20326_prbs","can_rsamd5","cannot_rsamd5","broken_rsamd5","can_rsamd5_prbs","cannot_rsamd5_prbs","broken_rsamd5_prbs","can_dsa","cannot_dsa","broken_dsa","can_dsa_prbs","cannot_dsa_prbs","broken_dsa_prbs","can_rsasha1","cannot_rsasha1","broken_rsasha1","can_rsasha1_prbs","cannot_rsasha1_prbs","broken_rsasha1_prbs","can_dsansec3","cannot_dsansec3","broken_dsansec3","can_dsansec3_prbs","cannot_dsansec3_prbs","broken_dsansec3_prbs","can_rsansec3","cannot_rsansec3","broken_rsansec3","can_rsansec3_prbs","cannot_rsansec3_prbs","broken_rsansec3_prbs","can_rsasha256","cannot_rsasha256","broken_rsasha256","can_rsasha256_prbs","cannot_rsasha256_prbs","broken_rsasha256_prbs","can_rsasha512","cannot_rsasha512","broken_rsasha512","can_rsasha512_prbs","cannot_rsasha512_prbs","broken_rsasha512_prbs","can_eccgost","cannot_eccgost","broken_eccgost","can_eccgost_prbs","cannot_eccgost_prbs","broken_eccgost_prbs","can_ecdsa256","cannot_ecdsa256","broken_ecdsa256","can_ecdsa256_prbs","cannot_ecdsa256_prbs","broken_ecdsa256_prbs","can_ecdsa384","cannot_ecdsa384","broken_ecdsa384","can_ecdsa384_prbs","cannot_ecdsa384_prbs","broken_ecdsa384_prbs","can_ed25519","cannot_ed25519","broken_ed25519","can_ed25519_prbs","cannot_ed25519_prbs","broken_ed25519_prbs","can_ed448","cannot_ed448","broken_ed448","can_ed448_prbs","cannot_ed448_prbs","broken_ed448_prbs","can_gost","cannot_gost","broken_gost","can_gost_prbs","cannot_gost_prbs","broken_gost_prbs","can_sha384","cannot_sha384","broken_sha384","can_sha384_prbs","cannot_sha384_prbs","broken_sha384_prbs","is_internal","is_forwarding","is_external","is_internal_prbs","is_forwarding_prbs","is_external_prbs"
2017-06-20T23:59:50Z,29,55,38,19,55,29,38,19,13,8,0,0,0,0,0,0,0,55,0,29,0,55,0,29,0,0,0,0,0,0,0,0,12,32,10,8,20,8,18,36,0,11,20,0,28,26,0,16,15,0,18,36,0,11,20,0,28,26,0,16,15,0,28,26,0,16,15,0,28,26,0,16,15,0,11,43,0,9,23,0,28,26,0,16,15,0,28,26,0,16,15,0,0,55,0,0,29,0,0,55,0,0,29,0,21,33,0,14,20,0,28,26,0,16,15,0,39,5,11,25,5,8
2017-06-21T23:59:48Z,29,55,38,19,55,29,38,19,13,8,0,0,0,0,0,0,0,55,0,29,0,55,0,29,0,0,0,0,0,0,0,0,12,32,10,8,20,10,18,36,0,11,20,2,28,26,0,16,15,2,18,36,0,11,20,2,28,26,0,16,15,2,28,26,0,16,15,2,28,26,0,16,15,2,11,43,0,9,23,2,28,26,0,16,15,2,28,26,0,16,15,2,0,55,0,0,29,2,0,55,0,0,29,2,21,33,0,14,20,2,28,26,0,16,15,2,39,5,11,25,5,8
2017-06-22T23:59:48Z,29,55,38,19,54,29,38,19,12,8,0,0,0,0,0,0,0,55,0,29,0,55,0,29,0,0,0,0,0,0,0,0,12,32,10,8,20,10,18,36,0,11,20,2,28,26,0,16,15,2,18,36,0,11,20,2,28,26,0,16,15,2,28,26,0,16,15,2,28,26,0,16,15,2,11,43,0,9,23,2,28,26,0,16,15,2,28,26,0,16,15,2,0,55,0,0,29,2,0,55,0,0,29,2,21,33,0,14,20,2,28,26,0,16,15,2,39,5,11,25,5,8
2017-06-23T23:59:50Z,29,57,40,19,57,29,40,19,13,8,0,0,0,0,0,0,0,57,0,29,0,57,0,29,0,0,0,0,0,0,0,0,12,34,10,8,20,8,18,38,0,11,20,0,28,28,0,16,15,0,18,38,0,11,20,0,28,28,0,16,15,0,28,28,0,16,15,0,28,28,0,16,15,0,11,45,0,9,23,0,28,28,0,16,15,0,28,28,0,16,15,0,0,57,0,0,29,0,0,57,0,0,29,0,21,35,0,14,20,0,28,28,0,16,15,0,41,5,11,25,5,8
2017-06-24T23:59:51Z,28,56,40,19,56,28,39,19,12,8,0,0,0,0,0,0,0,56,0,28,0,55,0,27,0,0,0,0,0,0,0,0,12,33,10,8,19,8,17,38,0,10,20,0,27,28,0,15,15,0,17,38,0,10,20,0,27,28,0,15,15,0,27,28,0,15,15,0,27,28,0,15,15,0,11,44,0,9,22,0,27,28,0,15,15,0,27,28,0,15,15,0,0,56,0,0,28,0,0,56,0,0,28,0,21,34,0,14,19,0,27,28,0,15,15,0,40,5,11,24,5,8
2017-06-25T23:59:50Z,28,56,40,19,56,28,40,19,13,8,0,0,0,0,0,0,0,56,0,28,0,56,0,28,0,0,0,0,0,0,0,0,12,33,10,8,19,8,17,38,0,10,20,0,27,28,0,15,15,0,17,38,0,10,20,0,27,28,0,15,15,0,27,28,0,15,15,0,27,28,0,15,15,0,11,44,0,9,22,0,27,28,0,15,15,0,27,28,0,15,15,0,0,56,0,0,28,0,0,56,0,0,28,0,21,34,0,14,19,0,27,28,0,15,15,0,40,5,11,24,5,8
2017-06-26T23:59:51Z,29,57,40,19,57,29,40,19,13,8,0,0,0,0,0,0,0,57,0,29,0,57,0,29,0,0,0,0,0,0,0,0,12,34,10,8,20,8,18,38,0,11,20,0,29,27,0,17,14,0,19,37,0,12,19,0,28,28,0,16,15,0,29,27,0,17,14,0,28,28,0,16,15,0,12,44,0,10,22,0,28,28,0,16,15,0,29,27,0,17,14,0,0,57,0,0,29,0,0,57,0,0,29,0,21,35,0,14,20,0,28,28,0,16,15,0,41,5,11,25,5,8
2017-06-27T23:59:50Z,28,56,40,19,56,28,39,19,13,8,0,0,0,0,0,0,0,56,0,28,0,56,0,28,0,0,0,0,0,0,0,0,12,34,10,8,20,8,18,38,0,11,20,0,29,27,0,17,14,0,19,37,0,12,19,0,28,28,0,16,15,0,29,27,0,17,14,0,28,28,0,16,15,0,12,44,0,10,22,0,29,27,0,17,14,0,29,27,0,17,14,0,0,56,0,0,28,0,0,56,0,0,28,0,22,34,0,15,19,0,29,27,0,17,14,0,40,5,11,24,5,8
2017-06-28T23:59:50Z,29,57,40,19,57,29,40,19,12,8,0,0,0,0,0,0,0,57,0,29,0,57,0,29,0,0,0,0,0,0,0,0,13,33,10,9,19,8,19,37,0,12,19,0,29,27,0,17,14,0,19,37,0,12,19,0,28,28,0,16,15,0,29,27,0,17,14,0,29,27,0,17,14,0,12,45,0,10,23,0,29,27,0,17,14,0,29,27,0,17,14,0,0,57,0,0,29,0,0,57,0,0,29,0,22,35,0,15,20,0,29,27,0,17,14,0,41,5,11,25,5,8
2017-06-29T23:59:49Z,28,56,40,19,55,28,40,19,14,8,0,0,0,0,0,0,0,56,0,28,0,56,0,28,0,0,0,0,0,0,0,0,13,32,10,9,18,8,19,36,0,12,18,0,29,26,0,17,13,0,19,36,0,12,18,0,29,26,0,17,13,0,29,26,0,17,13,0,29,26,0,17,13,0,12,44,0,10,22,0,29,26,0,17,13,0,29,26,0,17,13,0,0,56,0,0,28,0,0,56,0,0,28,0,22,34,0,15,19,0,29,26,0,17,13,0,40,5,11,24,5,8
2017-06-30T23:59:49Z,27,54,38,18,54,27,38,18,12,8,0,0,0,0,0,0,0,54,0,27,0,54,0,27,0,0,0,0,0,0,0,0,13,30,10,9,17,8,19,34,0,12,17,0,29,24,0,17,12,0,19,34,0,12,17,0,29,24,0,17,12,0,29,24,0,17,12,0,29,24,0,17,12,0,12,42,0,10,21,0,29,24,0,17,12,0,29,24,0,17,12,0,0,54,0,0,27,0,0,54,0,0,27,0,22,32,0,15,18,0,29,24,0,17,12,0,38,5,11,23,5,8
2017-07-01T23:59:48Z,27,54,38,18,53,27,37,18,13,8,0,0,0,0,0,0,0,54,0,27,0,54,0,27,0,0,0,0,0,0,0,0,13,30,10,9,17,8,19,34,0,12,17,0,29,24,0,17,12,0,19,34,0,12,17,0,29,24,0,17,12,0,29,24,0,17,12,0,29,24,0,17,12,0,12,42,0,10,21,0,29,24,0,17,12,0,29,24,0,17,12,0,0,54,0,0,27,0,0,54,0,0,27,0,22,32,0,15,18,0,29,24,0,17,12,0,38,5,11,23,5,8
2017-07-02T23:59:48Z,27,54,38,18,52,27,38,18,14,8,0,0,0,0,0,0,0,54,0,27,0,54,0,27,0,0,0,0,0,0,0,0,13,30,10,9,17,8,19,34,0,12,17,0,29,24,0,17,12,0,19,34,0,12,17,0,29,24,0,17,12,0,29,24,0,17,12,0,29,24,0,17,12,0,12,42,0,10,21,0,29,24,0,17,12,0,29,24,0,17,12,0,0,54,0,0,27,0,0,54,0,0,27,0,22,32,0,15,18,0,29,24,0,17,12,0,38,5,11,23,5,8
2017-07-03T23:59:51Z,29,57,40,19,57,29,40,19,13,8,0,0,0,0,0,0,0,57,0,29,0,57,0,29,0,0,0,0,0,0,0,0,13,33,10,9,19,8,19,37,0,12,19,0,29,27,0,17,14,0,19,37,0,12,19,0,29,27,0,17,14,0,29,27,0,17,14,0,29,27,0,17,14,0,12,45,0,10,23,0,29,27,0,17,14,0,29,27,0,17,14,0,0,57,0,0,29,0,0,57,0,0,29,0,22,35,0,15,20,0,29,27,0,17,14,0,41,5,11,25,5,8
2017-07-04T23:59:20Z,28,55,38,18,55,28,38,18,14,8,0,0,0,0,0,0,0,55,0,28,0,55,0,28,0,0,0,0,0,0,0,0,13,31,10,9,18,8,19,35,0,12,18,0,29,25,0,17,13,0,19,35,0,12,18,0,29,25,0,17,13,0,29,25,0,17,13,0,29,25,0,17,13,0,12,43,0,10,22,0,29,25,0,17,13,0,29,25,0,17,13,0,0,55,0,0,28,0,0,55,0,0,28,0,22,33,0,15,19,0,29,25,0,17,13,0,39,5,11,24,5,8
2017-07-05T23:59:18Z,27,54,38,18,54,27,38,18,13,8,0,0,0,0,0,0,0,54,0,27,0,54,0,27,0,0,0,0,0,0,0,0,13,30,10,9,17,8,19,34,0,12,17,0,29,24,0,17,12,0,19,34,0,12,17,0,29,24,0,17,12,0,29,24,0,17,12,0,29,24,0,17,12,0,12,42,0,10,21,0,29,24,0,17,12,0,29,24,0,17,12,0,0,54,0,0,27,0,0,54,0,0,27,0,22,32,0,15,18,0,29,24,0,17,12,0,38,5,11,23,5,8
2017-07-06T23:59:18Z,26,52,36,17,52,26,35,16,12,8,0,0,0,0,0,0,0,52,0,26,0,51,0,25,0,0,0,0,0,0,0,0,13,28,10,9,16,8,19,32,0,12,16,0,29,22,0,17,11,0,19,32,0,12,16,0,29,22,0,17,11,0,29,22,0,17,11,0,29,22,0,17,11,0,12,40,0,10,20,0,29,22,0,17,11,0,29,22,0,17,11,0,0,52,0,0,26,0,0,52,0,0,26,0,22,30,0,15,17,0,29,22,0,17,11,0,36,5,11,22,5,8
2017-07-07T23:59:19Z,26,52,36,17,52,26,36,17,12,8,0,0,0,0,0,0,0,52,0,26,0,52,0,26,0,0,0,0,0,0,0,0,13,28,10,9,16,8,19,32,0,12,16,0,29,22,0,17,11,0,19,32,0,12,16,0,29,22,0,17,11,0,29,22,0,17,11,0,29,22,0,17,11,0,12,40,0,10,20,0,29,22,0,17,11,0,29,22,0,17,11,0,0,52,0,0,26,0,0,52,0,0,26,0,22,30,0,15,17,0,29,22,0,17,11,0,36,5,11,22,5,8
2017-07-08T23:59:17Z,26,52,36,17,52,26,36,17,13,8,0,0,0,0,0,0,0,52,0,26,0,52,0,26,0,0,0,0,0,0,0,0,13,28,10,9,16,8,19,32,0,12,16,0,29,22,0,17,11,0,19,32,0,12,16,0,29,22,0,17,11,0,29,22,0,17,11,0,29,22,0,17,11,0,12,40,0,10,20,0,29,22,0,17,11,0,29,22,0,17,11,0,0,52,0,0,26,0,0,52,0,0,26,0,22,30,0,15,17,0,29,22,0,17,11,0,36,5,11,22,5,8
2017-07-09T23:59:18Z,26,52,36,17,52,26,36,17,14,8,0,0,0,0,0,0,0,52,0,26,0,52,0,26,0,0,0,0,0,0,0,0,13,28,10,9,16,8,19,32,0,12,16,0,29,22,0,17,11,0,19,32,0,12,16,0,29,22,0,17,11,0,29,22,0,17,11,0,29,22,0,17,11,0,12,40,0,10,20,0,29,22,0,17,11,0,29,22,0,17,11,0,0,52,0,0,26,0,0,52,0,0,26,0,22,30,0,15,17,0,29,22,0,17,11,0,35,6,11,22,6,8
2017-07-10T23:59:55Z,29,58,40,19,58,29,40,19,12,8,0,0,0,0,0,0,0,58,0,29,0,58,0,29,0,0,0,0,0,0,0,0,13,34,10,9,19,8,19,38,0,12,19,0,29,28,0,17,14,0,19,38,0,12,19,0,29,28,0,17,14,0,29,28,0,17,14,0,29,28,0,17,14,0,12,46,0,10,23,0,29,28,0,17,14,0,29,28,0,17,14,0,0,58,0,0,29,0,0,58,0,0,29,0,22,36,0,15,20,0,29,28,0,17,14,0,42,5,11,25,5,8
2017-07-11T23:59:54Z,29,58,40,19,58,29,39,19,12,8,0,0,0,0,0,0,0,58,0,29,0,58,0,29,0,0,0,0,0,0,0,0,13,34,10,9,19,8,19,38,0,12,19,0,29,28,0,17,14,0,19,38,0,12,19,0,29,28,0,17,14,0,29,28,0,17,14,0,29,28,0,17,14,0,12,46,0,10,23,0,29,28,0,17,14,0,29,28,0,17,14,0,0,58,0,0,29,0,0,58,0,0,29,0,22,36,0,15,20,0,29,28,0,17,14,0,42,5,11,25,5,8
2017-07-12T23:59:55Z,30,60,40,19,60,30,40,19,14,8,0,0,0,0,0,0,0,60,0,30,0,60,0,30,0,0,0,0,0,0,0,0,14,35,10,10,20,8,20,39,0,13,20,0,30,29,0,18,15,0,20,39,0,13,20,0,30,29,0,18,15,0,30,29,0,18,15,0,30,29,0,18,15,0,12,48,0,10,24,0,29,30,0,17,15,0,29,30,0,17,15,0,0,60,0,0,30,0,0,60,0,0,30,0,22,38,0,15,21,0,29,30,0,17,15,0,43,6,11,26,6,8
2017-07-13T23:59:55Z,30,60,40,19,60,30,40,19,13,8,0,0,0,0,0,0,0,60,0,30,0,60,0,30,0,0,0,0,0,0,0,0,14,35,10,10,20,8,20,39,0,13,20,0,30,29,0,18,15,0,20,39,0,13,20,0,30,29,0,18,15,0,30,29,0,18,15,0,30,29,0,18,15,0,12,48,0,10,24,0,29,30,0,17,15,0,29,30,0,17,15,0,0,60,0,0,30,0,0,60,0,0,30,0,22,38,0,15,21,0,29,30,0,17,15,0,44,5,11,26,5,8
2017-07-14T23:59:55Z,30,60,40,19,60,30,40,19,13,8,0,0,0,0,0,0,0,60,0,30,0,60,0,30,0,0,0,0,0,0,0,0,14,35,10,10,20,8,20,39,0,13,20,0,30,29,0,18,15,0,20,39,0,13,20,0,30,29,0,18,15,0,30,29,0,18,15,0,30,29,0,18,15,0,12,48,0,10,24,0,29,30,0,17,15,0,29,30,0,17,15,0,0,60,0,0,30,0,0,60,0,0,30,0,22,38,0,15,21,0,29,30,0,17,15,0,44,5,11,26,5,8
2017-07-15T23:59:54Z,30,60,40,19,59,30,40,19,13,8,0,0,0,0,0,0,0,60,0,30,0,60,0,30,0,0,0,0,0,0,0,0,14,35,10,10,20,8,20,39,0,13,20,0,30,29,0,18,15,0,20,39,0,13,20,0,30,29,0,18,15,0,30,29,0,18,15,0,30,29,0,18,15,0,12,48,0,10,24,0,29,30,0,17,15,0,29,30,0,17,15,0,0,60,0,0,30,0,0,60,0,0,30,0,22,38,0,15,21,0,29,30,0,17,15,0,44,5,11,26,5,8
2017-07-16T23:59:54Z,30,60,40,19,59,30,40,19,13,8,0,0,0,0,0,0,0,60,0,30,0,59,0,29,0,0,0,0,0,0,0,0,14,35,10,10,20,8,20,39,0,13,20,0,30,29,0,18,15,0,20,39,0,13,20,0,30,29,0,18,15,0,30,29,0,18,15,0,30,29,0,18,15,0,12,48,0,10,24,0,29,30,0,17,15,0,29,30,0,17,15,0,0,60,0,0,30,0,0,60,0,0,30,0,22,38,0,15,21,0,29,30,0,17,15,0,44,5,11,26,5,8
2017-07-17T23:59:54Z,30,60,40,19,60,30,40,19,13,8,0,0,0,0,0,0,0,60,0,30,0,60,0,30,0,0,0,0,0,0,0,0,14,35,10,10,20,8,20,39,0,13,20,0,30,29,0,18,15,0,20,39,0,13,20,0,30,29,0,18,15,0,30,29,0,18,15,0,30,29,0,18,15,0,12,48,0,10,24,0,29,30,0,17,15,0,29,30,0,17,15,0,0,60,0,0,30,0,0,60,0,0,30,0,22,38,0,15,21,0,29,30,0,17,15,0,44,5,11,26,5,8
2017-07-18T23:59:54Z,30,60,40,19,60,30,40,19,12,8,0,0,0,0,0,0,0,60,0,30,0,60,0,30,0,0,0,0,0,0,0,0,14,35,10,10,20,8,20,39,0,13,20,0,30,29,0,18,15,0,20,39,0,13,20,0,30,29,0,18,15,0,30,29,0,18,15,0,30,29,0,18,15,0,12,48,0,10,24,0,29,30,0,17,15,0,29,30,0,17,15,0,0,60,0,0,30,0,0,60,0,0,30,0,22,38,0,15,21,0,29,30,0,17,15,0,44,5,11,26,5,8
2017-07-19T23:59:56Z,31,61,40,19,60,31,40,19,13,8,0,0,0,0,0,0,0,61,0,31,0,61,0,31,0,0,0,0,0,0,0,0,15,35,10,11,20,8,21,39,0,14,20,0,31,29,0,19,15,0,21,39,0,14,20,0,31,29,0,19,15,0,31,29,0,19,15,0,31,29,0,19,15,0,13,48,0,11,24,0,30,30,0,18,15,0,30,30,0,18,15,0,0,61,0,0,31,0,0,61,0,0,31,0,23,38,0,16,21,0,30,30,0,18,15,0,45,5,11,27,5,8
2017-07-20T23:59:54Z,30,59,38,18,59,30,38,18,11,7,0,0,0,0,0,0,0,59,0,30,0,59,0,30,0,0,0,0,0,0,0,0,15,35,8,11,20,7,21,37,0,14,19,0,29,29,0,18,15,0,21,37,0,14,19,0,29,29,0,18,15,0,29,29,0,18,15,0,29,29,0,18,15,0,13,46,0,11,23,0,28,30,0,17,15,0,28,30,0,17,15,0,0,59,0,0,30,0,0,59,0,0,30,0,21,38,0,15,21,0,28,30,0,17,15,0,45,5,9,27,5,7
2017-07-21T23:59:54Z,31,61,40,19,60,31,40,19,13,8,0,0,0,0,0,0,0,61,0,31,0,61,0,31,0,0,0,0,0,0,0,0,15,35,10,11,20,8,21,39,0,14,20,0,31,29,0,19,15,0,21,39,0,14,20,0,31,29,0,19,15,0,31,29,0,19,15,0,31,29,0,19,15,0,13,48,0,11,24,0,30,30,0,18,15,0,30,30,0,18,15,0,0,61,0,0,31,0,0,61,0,0,31,0,23,38,0,16,21,0,30,30,0,18,15,0,45,5,11,27,5,8
2017-07-22T23:59:57Z,30,59,38,18,59,30,38,18,11,7,0,0,0,0,0,0,0,59,0,30,0,59,0,30,0,0,0,0,0,0,0,0,15,35,8,11,20,7,21,37,0,14,19,0,29,29,0,18,15,0,21,37,0,14,19,0,29,29,0,18,15,0,29,29,0,18,15,0,29,29,0,18,15,0,13,46,0,11,23,0,28,30,0,17,15,0,28,30,0,17,15,0,0,59,0,0,30,0,0,59,0,0,30,0,21,38,0,15,21,0,28,30,0,17,15,0,45,5,9,27,5,7
2017-07-23T23:59:54Z,30,59,38,18,59,30,38,18,11,7,0,0,0,0,0,0,0,59,0,30,0,59,0,30,0,0,0,0,0,0,0,0,15,35,8,11,20,7,21,37,0,14,19,0,29,29,0,18,15,0,21,37,0,14,19,0,29,29,0,18,15,0,29,29,0,18,15,0,29,29,0,18,15,0,13,46,0,11,23,0,28,30,0,17,15,0,28,30,0,17,15,0,0,59,0,0,30,0,0,59,0,0,30,0,21,38,0,15,21,0,28,30,0,17,15,0,45,5,9,27,5,7
2017-07-24T23:59:57Z,30,60,39,18,59,30,38,18,11,7,0,0,0,0,0,0,0,60,0,30,0,60,0,30,0,0,0,0,0,0,0,0,15,36,8,11,20,7,21,38,0,14,19,0,29,30,0,18,15,0,21,38,0,14,19,0,29,30,0,18,15,0,29,30,0,18,15,0,29,30,0,18,15,0,13,47,0,11,23,0,28,31,0,17,15,0,28,31,0,17,15,0,0,60,0,0,30,0,0,60,0,0,30,0,21,39,0,15,21,0,28,31,0,17,15,0,46,5,9,27,5,7
2017-07-25T23:59:56Z,31,60,39,19,60,31,39,19,13,8,0,0,0,0,0,0,0,60,0,31,0,60,0,31,0,0,0,0,0,0,0,0,15,34,10,11,20,8,21,38,0,14,20,0,31,28,0,19,15,0,21,38,0,14,20,0,31,28,0,19,15,0,31,28,0,19,15,0,31,28,0,19,15,0,13,47,0,11,24,0,30,29,0,18,15,0,30,29,0,18,15,0,0,60,0,0,31,0,0,60,0,0,31,0,23,37,0,16,21,0,30,29,0,18,15,0,44,5,11,27,5,8
2017-07-26T23:59:56Z,30,59,38,18,59,30,38,18,12,8,0,0,0,0,0,0,0,59,0,30,0,59,0,30,0,0,0,0,0,0,0,0,14,34,10,10,20,8,20,38,0,13,20,0,30,28,0,18,15,0,20,38,0,13,20,0,30,28,0,18,15,0,30,28,0,18,15,0,30,28,0,18,15,0,12,47,0,10,24,0,29,29,0,17,15,0,29,29,0,17,15,0,0,59,0,0,30,0,0,59,0,0,30,0,22,37,0,15,21,0,29,29,0,17,15,0,43,5,11,26,5,8
2017-07-27T23:59:56Z,30,58,37,18,58,30,37,18,13,8,0,0,0,0,0,0,0,58,0,30,0,58,0,30,0,0,0,0,0,0,0,0,15,32,10,11,19,8,21,36,0,14,19,0,31,26,0,19,14,0,21,36,0,14,19,0,31,26,0,19,14,0,31,26,0,19,14,0,31,26,0,19,14,0,13,45,0,11,23,0,30,27,0,18,14,0,30,27,0,18,14,0,0,58,0,0,30,0,0,58,0,0,30,0,23,35,0,16,20,0,30,27,0,18,14,0,42,5,11,26,5,8
2017-07-28T23:59:55Z,31,60,39,19,60,31,39,19,13,8,0,0,0,0,0,0,0,60,0,31,0,59,0,30,0,0,0,0,0,0,0,0,15,34,10,11,20,8,21,38,0,14,20,0,31,28,0,19,15,0,21,38,0,14,20,0,31,28,0,19,15,0,31,28,0,19,15,0,31,28,0,19,15,0,13,47,0,11,24,0,30,29,0,18,15,0,30,29,0,18,15,0,0,60,0,0,31,0,0,60,0,0,31,0,23,37,0,16,21,0,30,29,0,18,15,0,44,5,11,27,5,8
2017-07-29T23:59:55Z,31,60,39,19,59,31,39,19,13,8,0,0,0,0,0,0,0,60,0,31,0,60,0,31,0,0,0,0,0,0,0,0,15,34,10,11,20,8,21,38,0,14,20,0,31,28,0,19,15,0,21,38,0,14,20,0,31,28,0,19,15,0,31,28,0,19,15,0,31,28,0,19,15,0,13,47,0,11,24,0,30,29,0,18,15,0,30,29,0,18,15,0,0,60,0,0,31,0,0,60,0,0,31,0,23,37,0,16,21,0,30,29,0,18,15,0,44,5,11,27,5,8
2017-07-30T23:59:55Z,31,60,39,19,60,31,39,19,12,8,0,0,0,0,0,0,0,60,0,31,0,60,0,31,0,0,0,0,0,0,0,0,15,34,10,11,20,8,21,38,0,14,20,0,31,28,0,19,15,0,21,38,0,14,20,0,31,28,0,19,15,0,31,28,0,19,15,0,31,28,0,19,15,0,13,47,0,11,24,0,30,29,0,18,15,0,30,29,0,18,15,0,0,60,0,0,31,0,0,60,0,0,31,0,23,37,0,16,21,0,30,29,0,18,15,0,44,5,11,27,5,8
2017-07-31T23:59:54Z,31,60,39,19,59,31,39,19,13,8,0,0,0,0,0,0,0,60,0,31,0,60,0,31,0,0,0,0,0,0,0,0,15,34,10,11,20,8,21,38,0,14,20,0,31,28,0,19,15,0,21,38,0,14,20,0,31,28,0,19,15,0,31,28,0,19,15,0,31,28,0,19,15,0,13,47,0,11,24,0,30,29,0,18,15,0,30,29,0,18,15,0,0,60,0,0,31,0,0,60,0,0,31,0,23,37,0,16,21,0,30,29,0,18,15,0,44,5,11,27,5,8
2017-08-01T23:59:57Z,31,61,40,19,61,31,40,19,11,8,0,0,0,0,0,0,0,61,0,31,0,61,0,31,0,0,0,0,0,0,0,0,15,35,10,11,20,8,21,39,0,14,20,0,31,29,0,19,15,0,21,39,0,14,20,0,31,29,0,19,15,0,31,29,0,19,15,0,31,29,0,19,15,0,13,48,0,11,24,0,30,30,0,18,15,0,30,30,0,18,15,0,0,61,0,0,31,0,0,61,0,0,31,0,23,38,0,16,21,0,30,30,0,18,15,0,45,5,11,27,5,8
2017-08-02T23:59:56Z,30,58,37,18,58,30,37,18,13,8,0,0,0,0,0,0,0,58,0,30,0,58,0,30,0,0,0,0,0,0,0,0,15,32,10,11,19,8,19,38,0,13,20,0,29,28,0,18,15,0,19,38,0,13,20,0,29,28,0,18,15,0,29,28,0,18,15,0,29,28,0,18,15,0,11,47,0,10,24,0,28,29,0,17,15,0,28,29,0,17,15,0,0,58,0,0,30,0,0,58,0,0,30,0,21,37,0,15,21,0,28,29,0,17,15,0,42,5,11,26,5,8
2017-08-03T23:59:56Z,30,59,38,18,58,30,38,18,12,8,0,0,0,0,0,0,0,59,0,30,0,59,0,30,0,0,0,0,0,0,0,0,16,32,10,11,19,8,22,36,0,14,19,0,32,26,0,19,14,0,22,36,0,14,19,0,32,26,0,19,14,0,32,26,0,19,14,0,32,26,0,19,14,0,14,45,0,11,23,0,31,27,0,18,14,0,31,27,0,18,14,0,0,59,0,0,30,0,0,59,0,0,30,0,24,35,0,16,20,0,31,27,0,18,14,0,42,6,11,26,5,8
2017-08-04T23:59:54Z,30,58,37,18,57,30,37,18,12,7,0,0,0,0,0,0,0,58,0,30,0,58,0,30,0,0,0,0,0,0,0,0,16,32,9,11,19,7,22,35,0,14,18,0,31,26,0,19,14,0,22,35,0,14,18,0,31,26,0,19,14,0,31,26,0,19,14,0,31,26,0,19,14,0,14,44,0,11,22,0,30,27,0,18,14,0,30,27,0,18,14,0,0,58,0,0,30,0,0,58,0,0,30,0,23,35,0,16,20,0,30,27,0,18,14,0,42,6,10,26,5,8
2017-08-05T23:59:56Z,29,57,36,17,57,29,36,17,12,7,0,0,0,0,0,0,0,57,0,29,0,57,0,29,0,0,0,0,0,0,0,0,15,32,9,10,19,7,21,35,0,13,18,0,30,26,0,18,14,0,21,35,0,13,18,0,30,26,0,18,14,0,30,26,0,18,14,0,30,26,0,18,14,0,13,44,0,10,22,0,29,27,0,17,14,0,29,27,0,17,14,0,0,57,0,0,29,0,0,57,0,0,29,0,22,35,0,15,20,0,29,27,0,17,14,0,41,6,10,25,5,8
2017-08-06T23:59:54Z,29,57,37,18,57,29,37,18,12,7,0,0,0,0,0,0,0,57,0,29,0,57,0,29,0,0,0,0,0,0,0,0,16,31,9,11,18,7,21,35,0,13,18,0,30,26,0,18,14,0,21,35,0,13,18,0,30,26,0,18,14,0,30,26,0,18,14,0,30,26,0,18,14,0,14,43,0,11,21,0,29,27,0,17,14,0,29,27,0,17,14,0,0,57,0,0,29,0,0,57,0,0,29,0,23,34,0,16,19,0,29,27,0,17,14,0,41,6,10,25,5,8
2017-08-07T23:59:55Z,30,58,37,18,58,30,37,18,12,7,0,0,0,0,0,0,0,58,0,30,0,58,0,30,0,0,0,0,0,0,0,0,16,32,9,11,19,7,22,35,0,14,18,0,31,26,0,19,14,0,22,35,0,14,18,0,31,26,0,19,14,0,31,26,0,19,14,0,31,26,0,19,14,0,14,44,0,11,22,0,30,27,0,18,14,0,30,27,0,18,14,0,0,58,0,0,30,0,0,58,0,0,30,0,23,35,0,16,20,0,30,27,0,18,14,0,42,6,10,26,5,8
2017-08-08T23:59:55Z,30,58,37,18,58,30,37,18,11,7,0,0,0,0,0,0,0,58,0,30,0,58,0,30,0,0,0,0,0,0,0,0,16,32,9,11,19,7,22,35,0,14,18,0,31,26,0,19,14,0,22,35,0,14,18,0,31,26,0,19,14,0,31,26,0,19,14,0,31,26,0,19,14,0,14,44,0,11,22,0,30,27,0,18,14,0,30,27,0,18,14,0,0,58,0,0,30,0,0,58,0,0,30,0,23,35,0,16,20,0,30,27,0,18,14,0,42,6,10,26,5,8
2017-08-09T23:59:56Z,30,58,37,18,57,30,37,18,12,7,0,0,0,0,0,0,0,58,0,30,0,58,0,30,0,0,0,0,0,0,0,0,16,32,9,11,19,7,22,35,0,14,18,0,31,26,0,19,14,0,22,35,0,14,18,0,31,26,0,19,14,0,31,26,0,19,14,0,31,26,0,19,14,0,14,44,0,11,22,0,30,27,0,18,14,0,30,27,0,18,14,0,0,58,0,0,30,0,0,58,0,0,30,0,23,35,0,16,20,0,30,27,0,18,14,0,42,6,10,26,5,8
2017-08-10T23:59:57Z,29,55,37,18,55,29,37,18,12,7,0,0,0,0,0,0,0,55,0,29,0,55,0,29,0,0,0,0,0,0,0,0,16,29,9,11,18,7,22,32,0,14,17,0,31,23,0,19,13,0,22,32,0,14,17,0,31,23,0,19,13,0,31,23,0,19,13,0,31,23,0,19,13,0,14,41,0,11,21,0,30,24,0,18,13,0,30,24,0,18,13,0,0,55,0,0,29,0,0,55,0,0,29,0,23,32,0,16,19,0,30,24,0,18,13,0,39,6,10,25,5,8
2017-08-11T23:59:56Z,29,55,37,18,55,29,37,18,11,7,0,0,0,0,0,0,0,55,0,29,0,55,0,29,0,0,0,0,0,0,0,0,16,29,9,11,18,7,22,32,0,14,17,0,31,23,0,19,13,0,22,32,0,14,17,0,31,23,0,19,13,0,31,23,0,19,13,0,31,23,0,19,13,0,14,41,0,11,21,0,30,24,0,18,13,0,30,24,0,18,13,0,0,55,0,0,29,0,0,55,0,0,29,0,23,32,0,16,19,0,30,24,0,18,13,0,39,6,10,25,5,8
2017-08-12T23:59:57Z,29,55,37,18,55,29,37,18,12,7,0,0,0,0,0,0,0,55,0,29,0,55,0,29,0,0,0,0,0,0,0,0,16,29,9,11,18,7,22,32,0,14,17,0,31,23,0,19,13,0,22,32,0,14,17,0,31,23,0,19,13,0,31,23,0,19,13,0,31,23,0,19,13,0,14,41,0,11,21,0,30,24,0,18,13,0,30,24,0,18,13,0,0,55,0,0,29,0,0,55,0,0,29,0,23,32,0,16,19,0,30,24,0,18,13,0,39,6,10,25,5,8
2017-08-13T23:59:57Z,29,55,37,18,55,29,36,18,12,7,0,0,0,0,0,0,0,55,0,29,0,55,0,29,0,0,0,0,0,0,0,0,16,29,9,11,18,7,22,32,0,14,17,0,31,23,0,19,13,0,22,32,0,14,17,0,31,23,0,19,13,0,31,23,0,19,13,0,31,23,0,19,13,0,14,41,0,11,21,0,30,24,0,18,13,0,30,24,0,18,13,0,0,55,0,0,29,0,0,55,0,0,29,0,23,32,0,16,19,0,30,24,0,18,13,0,39,6,10,25,5,8
2017-08-14T23:59:54Z,31,59,41,20,59,31,41,20,12,7,0,0,0,0,0,0,0,59,0,31,0,59,0,31,0,0,0,0,0,0,0,0,16,33,9,11,20,7,22,36,0,14,19,0,31,27,0,19,15,0,22,36,0,14,19,0,31,27,0,19,15,0,31,27,0,19,15,0,31,27,0,19,15,0,14,45,0,11,23,0,30,28,0,18,15,0,30,28,0,18,15,0,0,59,0,0,31,0,0,59,0,0,31,0,23,36,0,16,21,0,30,28,0,18,15,0,43,6,10,27,5,8
2017-08-15T23:59:57Z,31,59,41,20,58,31,41,20,12,7,0,0,0,0,0,0,0,59,0,31,0,59,0,31,0,0,0,0,0,0,0,0,16,33,9,11,20,7,22,36,0,14,19,0,31,27,0,19,15,0,22,36,0,14,19,0,31,27,0,19,15,0,31,27,0,19,15,0,31,27,0,19,15,0,14,45,0,11,23,0,30,28,0,18,15,0,30,28,0,18,15,0,0,59,0,0,31,0,0,59,0,0,31,0,23,36,0,16,21,0,30,28,0,18,15,0,43,6,10,27,5,8
2017-08-16T23:59:57Z,32,62,41,20,62,32,41,20,12,7,0,0,0,0,0,0,0,62,0,32,0,62,0,32,0,0,0,0,0,0,0,0,16,36,9,11,21,7,22,39,0,14,20,0,31,30,0,19,16,0,22,39,0,14,20,0,31,30,0,19,16,0,31,30,0,19,16,0,31,30,0,19,16,0,14,48,0,11,24,0,30,31,0,18,16,0,30,31,0,18,16,0,0,62,0,0,32,0,0,62,0,0,32,0,23,39,0,16,22,0,30,31,0,18,16,0,46,6,10,28,5,8
2017-08-17T23:59:54Z,32,62,41,20,62,32,41,20,12,7,0,0,0,0,0,0,0,62,0,32,0,62,0,32,0,0,0,0,0,0,0,0,16,36,9,11,21,7,22,39,0,14,20,0,31,30,0,19,16,0,22,39,0,14,20,0,31,30,0,19,16,0,31,30,0,19,16,0,31,30,0,19,16,0,14,48,0,11,24,0,30,31,0,18,16,0,30,31,0,18,16,0,0,62,0,0,32,0,0,62,0,0,32,0,23,39,0,16,22,0,30,31,0,18,16,0,46,6,10,28,5,8
2017-08-18T23:59:55Z,32,62,41,20,62,32,41,20,12,7,0,0,0,0,0,0,0,62,0,32,0,62,0,32,0,0,0,0,0,0,0,0,16,36,9,11,21,7,22,39,0,14,20,0,31,30,0,19,16,0,22,39,0,14,20,0,31,30,0,19,16,0,31,30,0,19,16,0,31,30,0,19,16,0,14,48,0,11,24,0,30,31,0,18,16,0,30,31,0,18,16,0,0,62,0,0,32,0,0,62,0,0,32,0,23,39,0,16,22,0,30,31,0,18,16,0,46,6,10,28,5,8
2017-08-19T23:59:56Z,32,62,41,20,62,32,41,20,12,7,0,0,0,0,0,0,0,62,0,32,0,62,0,32,0,0,0,0,0,0,0,0,16,36,9,11,21,7,22,39,0,14,20,0,31,30,0,19,16,0,22,39,0,14,20,0,31,30,0,19,16,0,31,30,0,19,16,0,31,30,0,19,16,0,14,48,0,11,24,0,30,31,0,18,16,0,30,31,0,18,16,0,0,62,0,0,32,0,0,62,0,0,32,0,23,39,0,16,22,0,30,31,0,18,16,0,46,6,10,28,5,8
2017-08-20T23:59:56Z,32,62,41,20,62,32,41,20,12,7,0,0,0,0,0,0,0,62,0,32,0,62,0,32,0,0,0,0,0,0,0,0,16,36,9,11,21,7,22,39,0,14,20,0,31,30,0,19,16,0,22,39,0,14,20,0,31,30,0,19,16,0,31,30,0,19,16,0,31,30,0,19,16,0,14,48,0,11,24,0,30,31,0,18,16,0,30,31,0,18,16,0,0,62,0,0,32,0,0,62,0,0,32,0,23,39,0,16,22,0,30,31,0,18,16,0,46,6,10,28,5,8
2017-08-21T23:59:57Z,32,62,41,20,62,32,41,20,12,7,0,0,0,0,0,0,0,62,0,32,0,62,0,32,0,0,0,0,0,0,0,0,16,36,9,11,21,7,22,39,0,14,20,0,31,30,0,19,16,0,22,39,0,14,20,0,31,30,0,19,16,0,31,30,0,19,16,0,31,30,0,19,16,0,14,48,0,11,24,0,30,31,0,18,16,0,30,31,0,18,16,0,0,62,0,0,32,0,0,62,0,0,32,0,23,39,0,16,22,0,30,31,0,18,16,0,46,6,10,28,5,8
2017-08-22T23:59:55Z,32,62,41,20,62,32,41,20,12,7,0,0,0,0,0,0,0,62,0,32,0,62,0,32,0,0,0,0,0,0,0,0,16,36,9,11,21,7,22,39,0,14,20,0,31,30,0,19,16,0,22,39,0,14,20,0,31,30,0,19,16,0,31,30,0,19,16,0,31,30,0,19,16,0,14,48,0,11,24,0,30,31,0,18,16,0,30,31,0,18,16,0,0,62,0,0,32,0,0,62,0,0,32,0,23,39,0,16,22,0,30,31,0,18,16,0,46,6,10,28,5,8
2017-08-23T23:59:55Z,32,62,41,20,62,32,41,20,12,7,0,0,0,0,0,0,0,62,0,32,0,62,0,32,0,0,0,0,0,0,0,0,16,36,9,11,21,7,22,39,0,14,20,0,31,30,0,19,16,0,22,39,0,14,20,0,31,30,0,19,16,0,31,30,0,19,16,0,31,30,0,19,16,0,14,48,0,11,24,0,30,31,0,18,16,0,30,31,0,18,16,0,0,62,0,0,32,0,0,62,0,0,32,0,23,39,0,16,22,0,30,31,0,18,16,0,46,6,10,28,5,8